Location: Newark
(47.5833°N, 8.1500°E)
Time: 07:42:26
(UTC+00:00)

Vanguard 1 - Pass Details

Date: 03 November 2020
Orbit: 650 x 3833 km, 34.2° (Epoch: 29 November)

Event Time Altitude Azimuth Distance (km) Brightness Sun altitude
Rises 16:06:47 0° 278° (W) 7,954 15.9 -0.9°
Reaches altitude 10° 16:12:56 10° 271° (W) 6,935 15.8 -1.9°
Maximum altitude 16:31:57 36° 216° (SW) 4,404 14.0 -4.9°
Drops below altitude 10° 16:45:38 10° 157° (SSE) 5,017 13.6 -7.1°
Sets 16:49:16 0° 148° (SSE) 5,624 13.8 -7.7°
